Date String (YYYY-MM-DD hh:mm:ss) UTC,Instrument flags,absolute air pressure of the measurement (hPa),sample flow rate (lpm),inlet stack bypass flow (lpm),air temperature of the measurement (°C),ambient temperature measured by the external sensor (°C),aerosol sample conditioner tube jacket temperature (°C),OPC LED temperature (°C),internal box temperature (°C),relative humidity of the measurement (%),span deviation,mass concentration of particles derived from Lorenz-Mie calculation of OPC scattering (μg/m³),mass concentration of particles derived from Lorenz-Mie calculation of OPC scattering (μg/m³),mass concentration of particles derived from Lorenz-Mie calculation of OPC scattering (μg/m³)
DateTimeUTC,F1_M11,P_M11,Q1_M11,Q2_M11,T1_M11,T2_M11,T3_M11,T4_M11,T5_M11,U1_M11,ZSPAN_M11,X0_M11,X2_M11,X1_M11
2023-06-18 18:00:00,SystemResetWarning,0825.4,5.00,000.00,029.4,027.3,000.0,037.8,031.1,18.1,0000.0,0007.23,0004.11,0003.69
2023-06-18 18:01:00,SystemResetWarning,0825.3,5.01,000.00,029.4,025.1,000.0,037.8,030.9,20.2,0000.0,0007.13,0004.09,0003.68
2023-06-18 18:02:00,SystemResetWarning,0825.3,5.01,000.00,029.3,024.2,000.0,037.7,030.8,20.8,0000.0,0007.07,0004.08,0003.68
2023-06-18 18:03:00,SystemResetWarning,0825.3,5.02,000.00,029.3,024.7,000.0,037.7,030.6,21.1,0000.0,0006.90,0004.07,0003.69
2023-06-18 18:04:00,SystemResetWarning,0825.3,5.00,000.00,029.2,025.1,000.0,037.7,030.5,21.3,0000.0,0006.55,0004.04,0003.69
2023-06-18 18:05:00,SystemResetWarning,0825.2,4.99,000.00,029.2,025.6,000.0,037.7,030.5,21.1,0000.0,0006.74,0004.04,0003.69
2023-06-18 18:06:00,SystemResetWarning,0825.3,5.00,000.00,029.1,026.0,000.0,037.7,030.5,19.8,0000.0,0007.39,0004.04,0003.70
2023-06-18 18:07:00,SystemResetWarning,0825.3,5.01,000.00,029.2,026.5,000.0,037.7,030.6,19.9,0000.0,0007.11,0004.01,0003.70
2023-06-18 18:08:00,SystemResetWarning,0825.2,5.00,000.00,029.2,026.8,000.0,037.7,030.7,19.8,0000.0,0006.86,0003.99,0003.70
2023-06-18 18:09:00,SystemResetWarning,0825.2,5.00,000.00,029.2,027.1,000.0,037.7,030.7,20.1,0000.0,0007.17,0003.98,0003.70
2023-06-18 18:10:00,SystemResetWarning,0825.2,5.00,000.00,029.2,027.4,000.0,037.7,030.8,18.8,0000.0,0007.34,0004.00,0003.71
2023-06-18 18:11:00,SystemResetWarning,0825.2,5.00,000.00,029.2,027.6,000.0,037.7,030.8,18.5,0000.0,0007.51,0004.03,0003.72
2023-06-18 18:12:00,SystemResetWarning,0825.2,5.00,000.00,029.3,027.7,000.0,037.8,030.9,19.1,0000.0,0007.96,0004.07,0003.73
2023-06-18 18:13:00,SystemResetWarning,0825.1,5.00,000.00,029.3,027.9,000.0,037.8,031.0,19.7,0000.0,0008.14,0004.07,0003.74
2023-06-18 18:14:00,SystemResetWarning,0825.2,5.00,000.00,029.4,027.8,000.0,037.8,031.0,20.9,0000.0,0008.82,0004.07,0003.74
2023-06-18 18:15:00,SystemResetWarning,0825.2,4.98,000.00,029.4,026.0,000.0,037.7,031.0,20.5,0000.0,0009.58,0004.10,0003.74
2023-06-18 18:16:00,SystemResetWarning,0825.2,5.01,000.00,029.3,024.3,000.0,037.7,030.8,19.8,0000.0,0009.49,0004.12,0003.75
2023-06-18 18:17:00,SystemResetWarning,0825.2,5.02,000.00,029.3,024.4,000.0,037.6,030.8,20.1,0000.0,0009.12,0004.09,0003.74
2023-06-18 18:18:00,SystemResetWarning,0825.2,5.00,000.00,029.2,024.8,000.0,037.7,030.5,20.8,0000.0,0009.52,0004.10,0003.74
2023-06-18 18:19:00,SystemResetWarning,0825.2,5.00,000.00,029.1,025.3,000.0,037.7,030.4,21.8,0000.0,0009.65,0004.11,0003.74
2023-06-18 18:20:00,SystemResetWarning,0825.2,4.99,000.00,029.1,025.8,000.0,037.7,030.5,22.4,0000.0,0009.49,0004.12,0003.75
2023-06-18 18:21:00,SystemResetWarning,0825.2,4.99,000.00,029.1,026.2,000.0,037.7,030.5,22.8,0000.0,0009.45,0004.15,0003.76
2023-06-18 18:22:00,SystemResetWarning,0825.2,5.01,000.00,029.1,026.6,000.0,037.7,030.6,22.0,0000.0,0009.48,0004.14,0003.75
2023-06-18 18:23:00,SystemResetWarning,0825.1,5.00,000.00,029.1,027.0,000.0,037.7,030.7,22.1,0000.0,0009.18,0004.15,0003.75
2023-06-18 18:24:00,SystemResetWarning,0825.1,4.99,000.00,029.2,027.2,000.0,037.7,030.7,20.6,0000.0,0009.09,0004.17,0003.76
2023-06-18 18:25:00,SystemResetWarning,0825.2,5.01,000.00,029.2,027.5,000.0,037.7,030.8,20.5,0000.0,0009.16,0004.18,0003.76
2023-06-18 18:26:00,SystemResetWarning,0825.1,5.00,000.00,029.2,027.7,000.0,037.7,030.9,23.0,0000.0,0008.44,0004.17,0003.76
2023-06-18 18:27:00,SystemResetWarning,0825.1,5.01,000.00,029.3,027.8,000.0,037.7,030.9,23.6,0000.0,0008.43,0004.16,0003.75
2023-06-18 18:28:00,SystemResetWarning,0825.1,5.00,000.00,029.3,028.0,000.0,037.8,031.0,21.4,0000.0,0008.34,0004.16,0003.75
2023-06-18 18:29:00,SystemResetWarning,0825.1,4.98,000.00,029.3,027.0,000.0,037.7,031.0,20.8,0000.0,0008.00,0004.15,0003.75
2023-06-18 18:30:00,SystemResetWarning,0825.1,5.00,000.00,029.3,024.8,000.0,037.7,030.7,20.6,0000.0,0007.84,0004.16,0003.75
2023-06-18 18:31:00,SystemResetWarning,0825.1,5.00,000.00,029.2,024.3,000.0,037.6,030.7,20.4,0000.0,0007.86,0004.16,0003.74
2023-06-18 18:32:00,SystemResetWarning,0825.1,5.02,000.00,029.2,024.7,000.0,037.6,030.5,20.2,0000.0,0007.85,0004.14,0003.73
2023-06-18 18:33:00,SystemResetWarning,0825.1,5.00,000.00,029.1,025.1,000.0,037.6,030.4,20.8,0000.0,0007.72,0004.12,0003.72
2023-06-18 18:34:00,SystemResetWarning,0825.1,5.00,000.00,029.1,025.6,000.0,037.6,030.4,22.2,0000.0,0007.59,0004.11,0003.71
2023-06-18 18:35:00,SystemResetWarning,0825.1,5.00,000.00,029.1,026.1,000.0,037.6,030.5,21.5,0000.0,0007.59,0004.11,0003.71
2023-06-18 18:36:00,SystemResetWarning,0825.1,5.00,000.00,029.1,026.5,000.0,037.6,030.6,21.2,0000.0,0007.08,0004.09,0003.70
2023-06-18 18:37:00,SystemResetWarning,0825.1,4.99,000.00,029.1,026.8,000.0,037.6,030.7,22.3,0000.0,0006.91,0004.08,0003.69
2023-06-18 18:38:00,SystemResetWarning,0825.1,5.00,000.00,029.1,027.1,000.0,037.6,030.7,23.6,0000.0,0007.02,0004.09,0003.70
2023-06-18 18:39:00,SystemResetWarning,0825.1,5.01,000.00,029.2,027.4,000.0,037.7,030.8,23.3,0000.0,0007.78,0004.09,0003.70
2023-06-18 18:40:00,SystemResetWarning,0825.1,5.00,000.00,029.2,027.6,000.0,037.7,030.8,20.2,0000.0,0007.73,0004.06,0003.68
2023-06-18 18:41:00,SystemResetWarning,0825.1,5.00,000.00,029.2,027.8,000.0,037.7,030.9,19.1,0000.0,0007.69,0004.04,0003.66
2023-06-18 18:42:00,SystemResetWarning,0825.1,5.00,000.00,029.3,027.9,000.0,037.7,031.0,19.2,0000.0,0007.67,0004.03,0003.67
2023-06-18 18:43:00,SystemResetWarning,0825.1,4.99,000.00,029.3,026.6,000.0,037.7,031.0,18.9,0000.0,0007.62,0004.01,0003.66
2023-06-18 18:44:00,SystemResetWarning,0825.0,5.00,000.00,029.3,024.5,000.0,037.6,030.8,18.7,0000.0,0007.69,0004.03,0003.66
2023-06-18 18:45:00,SystemResetWarning,0825.0,5.00,000.00,029.2,024.3,000.0,037.6,030.7,19.0,0000.0,0007.71,0004.04,0003.66
2023-06-18 18:46:00,SystemResetWarning,0824.9,5.01,000.00,029.1,024.7,000.0,037.6,030.5,19.5,0000.0,0007.66,0004.01,0003.65
2023-06-18 18:47:00,SystemResetWarning,0824.9,5.01,000.00,029.1,025.1,000.0,037.6,030.4,19.9,0000.0,0007.76,0004.02,0003.65
2023-06-18 18:48:00,SystemResetWarning,0824.9,5.00,000.00,029.0,025.6,000.0,037.6,030.4,20.1,0000.0,0007.55,0004.03,0003.66
2023-06-18 18:49:00,SystemResetWarning,0824.9,4.99,000.00,029.0,026.1,000.0,037.6,030.5,20.2,0000.0,0007.51,0004.03,0003.66
2023-06-18 18:50:00,SystemResetWarning,0824.9,5.00,000.00,029.1,026.5,000.0,037.6,030.6,20.4,0000.0,0006.98,0004.00,0003.64
2023-06-18 18:51:00,SystemResetWarning,0824.9,5.01,000.00,029.1,026.9,000.0,037.6,030.6,19.2,0000.0,0007.01,0004.02,0003.65
2023-06-18 18:52:00,SystemResetWarning,0824.9,5.00,000.00,029.1,027.2,000.0,037.6,030.7,19.8,0000.0,0007.33,0004.03,0003.65
2023-06-18 18:53:00,SystemResetWarning,0824.9,5.00,000.00,029.1,027.4,000.0,037.6,030.8,19.9,0000.0,0007.32,0004.01,0003.65
2023-06-18 18:54:00,SystemResetWarning,0824.9,5.00,000.00,029.2,027.6,000.0,037.7,030.8,19.0,0000.0,0007.39,0003.99,0003.65
2023-06-18 18:55:00,SystemResetWarning,0824.9,5.00,000.00,029.2,027.8,000.0,037.7,030.9,20.4,0000.0,0007.64,0003.99,0003.65
2023-06-18 18:56:00,SystemResetWarning,0824.9,5.00,000.00,029.3,027.9,000.0,037.7,030.9,20.5,0000.0,0007.56,0003.96,0003.64
2023-06-18 18:57:00,SystemResetWarning,0824.9,4.99,000.00,029.3,027.4,000.0,037.7,031.0,21.0,0000.0,0007.53,0003.93,0003.65
2023-06-18 18:58:00,SystemResetWarning,0824.9,4.99,000.00,029.3,025.6,000.0,037.6,030.8,22.8,0000.0,0007.67,0003.95,0003.65
2023-06-18 18:59:00,SystemResetWarning,0824.9,5.01,000.00,029.3,025.4,000.0,037.6,030.8,22.5,0000.0,0008.60,0003.97,0003.65
